[[{"header":{"parameterUnit":"m.s-1","parameterCategory":1,"la1":30.2991,"la2":30.254,"lo1":-89.0895,"lo2":-89.0444,"dy":0.0017,"dx":0.0017,"nx":28,"ny":28,"refTime":"2024-06-28T21:00:00:Z","depth":0,"parameterNumber":2,"parameterNumberName":"U-component_of_WINDS"},"data":[0,0,0,0,0,0,0,0,0,0,0,0,0,0,0,0,0,0,0,0,0,0,0,0,0,0,0,0,0,0,0,0,0,0,0,0,0,0,0,0,0,0,0,0,0,0,0,0,0,0,0,0,0,0,0,0,0,0,2.4755,2.4756,0,2.4788,2.4788,2.4789,2.4726,2.4724,2.4722,2.472,2.4756,2.4759,2.4762,0,0,0,0,0,0,0,0,0,0,0,0,0,2.4644,2.4646,2.4755,2.4756,2.4756,2.4788,2.4788,2.4789,2.4727,2.4724,2.4721,2.4719,2.4755,2.4759,2.4762,0,0,0,0,0,0,0,0,0,0,0,0,0,2.4686,2.4647,2.4755,2.4729,2.4727,2.4788,2.4788,2.4789,2.4727,2.4724,2.4721,2.4718,2.4754,2.4758,2.4763,2.4852,0,0,2.4776,2.4778,0,0,0,0,0,0,0,0,2.4684,2.469,2.4732,2.4731,2.4728,2.475,2.4762,2.481,2.4728,2.4727,2.472,2.4716,2.4757,2.4761,2.4774,2.4854,2.4855,2.4776,2.4779,2.4781,2.4782,0,0,0,0,0,0,0,2.4681,2.4689,2.4768,2.4733,2.4731,2.4717,2.472,2.4771,2.4759,2.4727,2.4722,2.4727,2.4755,2.477,2.4774,2.4856,2.4776,2.478,2.4783,2.4785,2.5016,2.5019,0,0,0,0,0,0,2.4681,2.4687,2.4767,2.4769,2.4698,2.4722,2.4724,2.4746,2.4758,2.4757,2.473,2.4724,2.4764,2.4769,2.4775,2.4884,2.4781,2.4785,2.4787,2.5012,2.5016,2.502,0,0,0,0,0,0,2.4679,2.4689,2.4766,2.4727,2.4735,2.4727,2.4752,2.4748,2.4763,2.476,2.4758,2.4746,2.4762,2.4769,2.4834,2.4884,2.4787,2.4791,2.5008,2.5013,2.5018,2.51,0,0,0,0,0,0,2.4676,2.4688,2.472,2.4728,2.4738,2.4823,2.4755,2.4751,2.477,2.4763,2.4776,2.4775,2.476,2.4828,2.4839,2.4889,2.4794,2.5004,2.501,2.5017,2.5093,2.5108,2.512,0,0,0,0,0,2.4672,2.4742,2.4722,2.4732,2.4778,2.4826,2.4832,2.4812,2.4774,2.4808,2.4807,2.4774,2.4877,2.4835,2.4847,2.4899,2.5,2.5008,2.5016,2.5087,2.5105,2.512,0,0,0,0,0,0,2.474,2.4742,2.4721,2.4794,2.4811,2.4815,2.4857,2.4831,2.4859,2.4851,2.4827,2.483,2.4901,2.4906,2.486,2.4988,2.4932,2.4943,2.4983,2.4999,2.5013,2.5011,2.4798,0,0,0,0,0,2.4764,2.4801,2.4801,2.4867,2.4876,2.4865,2.4885,2.4869,2.4885,2.4892,2.4895,2.4913,2.495,2.4975,2.5008,2.5093,2.5097,2.5135,2.5148,2.516,2.517,2.522,2.5238,2.5046,2.5046,2.5046,0,0,2.4813,2.4819,2.4844,2.4881,2.4891,2.4933,2.4871,2.4917,2.4949,2.4899,2.4962,2.4965,2.4984,2.5061,2.5095,2.5067,2.5224,2.517,2.5179,2.5183,2.523,2.5248,2.5264,2.5052,2.5051,2.505,0,0,2.4925,2.4931,2.4989,2.5001,2.5018,2.5011,2.5025,2.5034,2.5035,2.5097,2.5063,2.5101,2.5163,2.5179,2.5195,2.5318,2.529,2.5329,2.5401,2.545,2.5465,2.5479,2.5526,2.5543,2.5339,2.5339,2.5339,0,2.4984,2.5044,2.5021,2.5071,2.509,2.5047,2.5107,2.512,2.5148,2.5163,2.5131,2.5212,2.5221,2.5303,2.5334,2.5347,2.5365,2.5328,2.5465,2.5478,2.549,2.5535,2.5553,2.5344,2.5343,2.5343,2.5342,0,2.5119,2.5161,2.5206,2.5234,2.5258,2.5312,2.53,2.5327,2.531,2.5308,2.5374,2.5384,2.5421,2.5438,2.5421,2.552,2.5503,2.5468,2.5412,2.5514,2.5556,2.5572,2.5351,2.5349,2.5348,2.5347,0,0,2.5273,2.5291,2.5308,2.5322,2.5339,2.5373,2.5427,2.5463,2.5489,2.5509,2.5557,2.5612,2.5582,2.56,2.5585,2.5628,2.573,2.5589,2.5589,2.5618,2.5844,2.5872,2.5892,2.5711,2.5714,2.5716,2.5844,0,2.5387,2.548,2.5462,2.5554,2.5595,2.5557,2.5605,2.5622,2.5622,2.5659,2.5658,2.57,2.5654,2.5666,2.5706,2.5709,2.5775,2.5699,2.5758,2.576,2.5757,2.5913,2.5942,2.6061,2.5859,2.5862,2.5864,0,2.5532,2.556,2.5656,2.567,2.5687,2.573,2.5764,2.5798,2.5819,2.5816,2.5839,2.5817,2.5874,2.5816,2.5896,2.5845,2.5868,2.5873,2.5877,2.5884,2.582,2.5928,2.6099,2.6118,2.5889,2.5887,2.5885,0,2.564,2.5701,2.5768,2.5781,2.5798,2.583,2.5839,2.5856,2.588,2.591,2.5926,2.5962,2.5983,2.6013,2.6002,2.596,2.6087,2.6027,2.6089,2.6089,2.6118,2.6117,2.6299,2.6129,2.6128,2.6128,2.6128,0,2.5771,2.5832,2.5817,2.5858,2.5927,2.5907,2.5976,2.5981,2.5997,2.6041,2.6009,2.6051,2.6033,2.6074,2.6067,2.6137,2.6145,2.6147,2.6145,2.6152,2.6152,2.6168,2.6161,2.6133,2.6132,2.6131,2.613,0,2.5904,2.5896,2.5966,2.5978,2.5983,2.6033,2.6044,2.6084,2.6082,2.6138,2.615,2.6148,2.6195,2.6187,2.6239,2.6235,2.6324,2.6309,2.6317,2.6315,2.6379,2.6374,2.6579,2.6607,2.6416,2.6418,2.6419,0,2.5989,2.6035,2.6053,2.608,2.6092,2.6134,2.6159,2.6143,2.6171,2.62,2.6237,2.6282,2.6317,2.6395,2.6399,2.644,2.6429,2.6498,2.6435,2.6442,2.6435,2.6433,2.644,2.6512,2.6514,2.6516,2.6517,0,2.6142,2.6137,2.6174,2.6211,2.6242,2.627,2.6295,2.6319,2.6305,2.6339,2.6387,2.6414,2.6469,2.6515,2.6554,2.6566,2.6541,2.6537,2.6554,2.6563,2.6567,2.6569,2.6354,2.6533,2.6531,2.653,2.6529,2.6528,2.6256,2.6298,2.6318,2.6361,2.6378,2.6404,2.6443,2.6447,2.6487,2.653,2.6518,2.6574,2.6597,2.6647,2.6663,2.6708,2.6683,2.6707,2.6713,2.672,2.673,2.6557,2.6715,2.6714,2.6714,2.6714,2.6713,0,2.6412,2.6423,2.6463,2.65,2.6536,2.6508,2.6535,2.6567,2.6617,2.664,2.6675,2.6733,2.6779,2.6788,2.6832,2.6867,2.6857,2.6879,2.6878,2.6882,2.6748,2.673,2.6887,2.6887,2.6887,2.6887,2.6887,2.6887,2.6497,2.6566,2.6564,2.6643,2.6654,2.6709,2.6728,2.6752,2.6771,2.6837,2.6875,2.688,2.6899,2.6944,2.6986,2.6988,2.7007,2.7035,2.7033,2.6908,2.6891,2.6874,2.6858,2.7038,2.7038,2.7163,2.7164,2.7165]},{"header":{"parameterUnit":"m.s-1","parameterCategory":1,"la1":30.2991,"la2":30.254,"lo1":-89.0895,"lo2":-89.0444,"dy":0.0017,"dx":0.0017,"nx":28,"ny":28,"refTime":"2024-06-28T21:00:00:Z","depth":0,"parameterNumber":3,"parameterNumberName":"V-component_of_WINDS"},"data":[0,0,0,0,0,0,0,0,0,0,0,0,0,0,0,0,0,0,0,0,0,0,0,0,0,0,0,0,0,0,0,0,0,0,0,0,0,0,0,0,0,0,0,0,0,0,0,0,0,0,0,0,0,0,0,0,0,0,0.3005,0.3007,0,0.3115,0.3117,0.3118,0.3101,0.3099,0.3097,0.3095,0.3205,0.321,0.3214,0,0,0,0,0,0,0,0,0,0,0,0,0,0.2774,0.2779,0.3005,0.3007,0.3008,0.3115,0.3117,0.3118,0.3101,0.3099,0.3096,0.3094,0.3204,0.3209,0.3215,0,0,0,0,0,0,0,0,0,0,0,0,0,0.2879,0.278,0.3005,0.3012,0.3014,0.3115,0.3117,0.3119,0.3101,0.3098,0.3096,0.3093,0.3202,0.3209,0.3216,0.3316,0,0,0.3237,0.324,0,0,0,0,0,0,0,0,0.2873,0.2887,0.301,0.3012,0.3014,0.3091,0.3076,0.3185,0.3102,0.3068,0.3095,0.3092,0.3169,0.3179,0.3206,0.3321,0.3325,0.3238,0.3242,0.3245,0.3247,0,0,0,0,0,0,0,0.2865,0.2882,0.3049,0.3012,0.3014,0.3008,0.302,0.3096,0.3133,0.3071,0.307,0.3083,0.317,0.3199,0.3208,0.3327,0.3238,0.3244,0.3248,0.3251,0.3524,0.3527,0,0,0,0,0,0,0.2857,0.2876,0.3045,0.3052,0.2935,0.3015,0.3028,0.3069,0.3132,0.3139,0.3086,0.3082,0.3188,0.32,0.3212,0.333,0.3245,0.3252,0.3256,0.3521,0.3524,0.3528,0,0,0,0,0,0,0.2852,0.2872,0.3041,0.2964,0.2985,0.3022,0.3069,0.3073,0.3102,0.3144,0.315,0.3109,0.3187,0.3202,0.3289,0.3333,0.3255,0.3261,0.3517,0.3522,0.3526,0.3568,0,0,0,0,0,0,0.2845,0.287,0.291,0.2965,0.2989,0.3118,0.3071,0.3077,0.3115,0.3111,0.3167,0.3173,0.3186,0.3278,0.3296,0.3342,0.3267,0.3513,0.3519,0.3525,0.3563,0.3573,0.3582,0,0,0,0,0,0.2837,0.2918,0.2913,0.2933,0.304,0.3121,0.3134,0.3147,0.3118,0.3157,0.3183,0.3172,0.3326,0.3288,0.3307,0.3355,0.3511,0.3518,0.3524,0.3558,0.3571,0.3582,0,0,0,0,0,0,0.2868,0.2926,0.292,0.3022,0.3066,0.3117,0.3168,0.3161,0.3215,0.3209,0.3222,0.3235,0.3322,0.3348,0.3304,0.3453,0.3414,0.3425,0.3433,0.3446,0.3455,0.3446,0.3273,0,0,0,0,0,0.2887,0.2949,0.2995,0.308,0.3103,0.3131,0.3167,0.3173,0.3219,0.3238,0.327,0.3315,0.3372,0.3411,0.3467,0.3566,0.3576,0.3609,0.3618,0.3626,0.3635,0.3685,0.3699,0.355,0.355,0.355,0,0,0.2926,0.2965,0.3004,0.3087,0.3123,0.3184,0.3147,0.3215,0.326,0.3248,0.3331,0.3356,0.3406,0.3498,0.3541,0.3522,0.3678,0.3635,0.3641,0.3646,0.3693,0.3707,0.372,0.3555,0.3554,0.3553,0,0,0.3029,0.3066,0.3139,0.3174,0.3227,0.3245,0.3262,0.3314,0.333,0.3414,0.3405,0.3457,0.3558,0.3593,0.3624,0.3734,0.3724,0.3752,0.3803,0.3851,0.3863,0.3873,0.3909,0.3923,0.3761,0.3761,0.3761,0,0.3071,0.3164,0.3177,0.3244,0.3279,0.3271,0.3343,0.3376,0.3445,0.3469,0.3447,0.357,0.3604,0.3702,0.3728,0.3755,0.3772,0.3746,0.3861,0.3871,0.3881,0.3915,0.3929,0.3764,0.3764,0.3763,0.3763,0,0.3211,0.3275,0.3327,0.3393,0.3434,0.3504,0.3525,0.3565,0.3566,0.3585,0.3667,0.3707,0.3769,0.3792,0.3795,0.389,0.3876,0.3858,0.3819,0.3898,0.393,0.3944,0.3768,0.3767,0.3766,0.3766,0,0,0.3338,0.3407,0.3426,0.3453,0.351,0.3559,0.3626,0.3686,0.3719,0.3765,0.382,0.3903,0.3885,0.392,0.3926,0.3969,0.4049,0.3944,0.3946,0.396,0.4151,0.4163,0.4178,0.4043,0.4045,0.4047,0.4145,0,0.3443,0.3563,0.3574,0.368,0.3738,0.3729,0.3786,0.3826,0.3844,0.3894,0.3914,0.3972,0.3946,0.3966,0.4008,0.403,0.4087,0.4024,0.4091,0.4093,0.4076,0.4196,0.421,0.43,0.4158,0.4161,0.4162,0,0.3583,0.3632,0.3744,0.3788,0.3813,0.3865,0.3919,0.3968,0.401,0.402,0.4057,0.4057,0.4122,0.4081,0.417,0.4126,0.4154,0.4169,0.4172,0.4178,0.4131,0.4201,0.433,0.4342,0.4183,0.4181,0.418,0,0.366,0.3755,0.3833,0.3857,0.3912,0.3948,0.3972,0.4012,0.4046,0.4093,0.4114,0.4168,0.4196,0.4237,0.4249,0.4218,0.4336,0.4297,0.4343,0.4343,0.4368,0.4366,0.45,0.4389,0.4389,0.4389,0.4389,0,0.3775,0.3843,0.3867,0.3915,0.3989,0.4001,0.4073,0.4095,0.413,0.418,0.4176,0.4222,0.4236,0.4284,0.4294,0.4364,0.4378,0.4385,0.4387,0.4385,0.4383,0.4402,0.4395,0.4392,0.4392,0.4391,0.439,0,0.3874,0.3894,0.3977,0.4021,0.4033,0.4086,0.4122,0.4167,0.4183,0.4246,0.4261,0.4287,0.4343,0.4359,0.4427,0.4433,0.4513,0.4511,0.4499,0.4498,0.4543,0.4537,0.4692,0.4711,0.4591,0.4592,0.4593,0,0.3946,0.3997,0.4046,0.4079,0.4104,0.4158,0.4192,0.4203,0.4239,0.4289,0.4326,0.4381,0.4426,0.4515,0.4538,0.4589,0.4585,0.4636,0.4593,0.4587,0.4582,0.4578,0.4581,0.4643,0.4645,0.4646,0.4647,0,0.4069,0.4075,0.4125,0.4177,0.4217,0.4259,0.4299,0.4325,0.4342,0.4381,0.4438,0.4473,0.454,0.4594,0.4644,0.4666,0.4658,0.466,0.4673,0.467,0.466,0.4663,0.4518,0.4656,0.4655,0.4655,0.4654,0.4654,0.4154,0.4198,0.4238,0.4292,0.4323,0.4359,0.4402,0.4423,0.4471,0.4527,0.453,0.4591,0.4628,0.4694,0.4719,0.4765,0.475,0.4769,0.4774,0.4778,0.478,0.4654,0.4774,0.4774,0.4774,0.4774,0.4773,0,0.4275,0.4299,0.4349,0.4404,0.4445,0.4435,0.4477,0.4512,0.4565,0.4601,0.4644,0.4707,0.4758,0.4784,0.4834,0.4865,0.4862,0.4877,0.4874,0.4878,0.4792,0.4775,0.4879,0.4879,0.4879,0.4878,0.4878,0.4878,0.4342,0.4414,0.4424,0.451,0.4534,0.4593,0.4617,0.4649,0.4678,0.4748,0.479,0.4807,0.4838,0.4889,0.4934,0.494,0.4957,0.4974,0.4977,0.4896,0.4885,0.4875,0.4858,0.4978,0.4978,0.506,0.506,0.5061]}]]